Location: Cabeza Gorda
(40.0667°N, 4.9667°W)
Time: 19:09:04
(UTC+00:00)

SJ 16-02 - Pass Details

Date: 15 January 2026
Orbit: 583 x 594 km, 75.0° (Epoch: 11 February)

Event Time Altitude Azimuth Distance (km) Brightness Sun altitude
Rises 06:18:16 0° 159° (SSE) 2,790 5.3 -15.4°
Reaches altitude 10° 06:21:02 10° 140° (SE) 1,896 4.7 -14.9°
Maximum altitude 06:23:53 18° 97° (E) 1,460 4.4 -14.4°
Drops below altitude 10° 06:26:44 10° 54° (NE) 1,906 4.4 -13.9°
Sets 06:29:31 0° 36° (NE) 2,812 5.0 -13.3°
